Flag for Cyprus Weather past 2 weeks in Paphos, Cyprus

Now
64 °F

Scattered clouds.


Feels Like: 64 °F
Forecast: 58 / 64 °F
Wind: 16 mph from West

Location: Paphos Airport

Current Time: Feb 28, 2015 at 9:41:34 AM

Latest Report: Feb 28, 2015 at 9:00 AM


Visibility: N/A

Pressure: 30.04 "Hg

Humidity: 68%

Dew point: 54 °F

Location of PaphosLocation

Historic Weather in Paphos — Graph

°F

Paphos temperature yesterday

Maximum temperature yesterday: 73 °F (at 11:00 AM)
Minimum temperature yesterday: 55 °F (at 12:00 AM)
Average temperature yesterday: 66 °F

Past Weeks' High & Low Weather Summary

 TemperatureHumidityPressure
High73 °F (Feb 27, 11:00 AM)94% (Feb 25, 1:30 AM)30.21 "Hg (Feb 25, 1:30 AM)
Low34 °F (Feb 20, 3:30 AM)33% (Feb 27, 5:30 AM)29.68 "Hg (Feb 20, 3:30 PM)
Average54 °F68%29.96 "Hg
* Reported Feb 13 8:30 AM — Feb 28 8:30 AM, Paphos, Weather by CustomWeather, © 2015

Note: Actual official high and low records may vary slightly from our data, if they occured in-between our weather recording intervals... More about our weather records

Advertising

Paphos weather history for previous 24 hours

 ConditionsComfort  
Time TempWeatherWind HumidityBarometerVisibility
8:30 AM
Sat, Feb 28
63 °FScattered clouds.15 mph73%30.04 "HgN/A
8:00 AM63 °FScattered clouds.15 mph73%30.01 "HgN/A
7:30 AM63 °FScattered clouds.12 mph68%30.01 "HgN/A
7:00 AM61 °FScattered clouds.13 mph72%30.01 "HgN/A
6:30 AM61 °FScattered clouds.13 mph72%29.98 "HgN/A
6:00 AM59 °FPassing clouds.6 mph72%29.98 "HgN/A
5:30 AM59 °FPassing clouds.9 mph77%29.98 "HgN/A
5:00 AM59 °FPartly cloudy.8 mph72%29.95 "HgN/A
4:30 AM59 °FPassing clouds.10 mph72%29.95 "HgN/A
4:00 AM61 °FCool.15 mph72%29.95 "HgN/A
3:30 AM61 °FCool.15 mph77%29.95 "HgN/A
3:00 AM61 °FPassing clouds.18 mph77%29.92 "HgN/A
2:30 AM61 °FPassing clouds.20 mph83%29.95 "HgN/A
2:00 AM63 °FPartly cloudy.18 mph83%29.95 "HgN/A
1:30 AM63 °FPartly cloudy.14 mph83%29.92 "HgN/A
1:00 AM63 °FPartly cloudy.14 mph83%29.95 "HgN/A
12:30 AM57 °FPartly cloudy.2 mph77%29.92 "HgN/A
12:00 AM55 °FClear.3 mph77%29.92 "Hg10 mi
11:30 PM
Fri, Feb 27
59 °FClear.2 mph68%29.92 "Hg10 mi
11:00 PM59 °FClear.No wind68%29.92 "Hg10 mi
10:30 PM57 °FClear.3 mph77%29.92 "Hg10 mi
10:00 PM57 °FClear.2 mph77%29.89 "Hg10 mi
9:30 PM57 °FClear.6 mph72%29.89 "Hg10 mi
9:00 PM57 °FClear.1 mph77%29.89 "Hg10 mi
8:30 PM61 °FClear.7 mph68%29.89 "Hg10 mi
8:00 PM63 °FPassing clouds.12 mph68%29.89 "HgN/A
7:30 PM63 °FClear.5 mph68%29.89 "Hg10 mi
7:00 PM63 °FClear.9 mph64%29.89 "Hg10 mi
6:30 PM64 °FClear.13 mph60%29.89 "Hg10 mi
6:00 PM64 °FClear.12 mph60%29.89 "Hg10 mi
5:30 PM66 °FSunny.15 mph56%29.89 "Hg10 mi
5:00 PM68 °FSunny.16 mph53%29.89 "Hg10 mi
4:30 PM68 °FSunny.18 mph56%29.86 "Hg10 mi
4:00 PM68 °FSunny.18 mph56%29.86 "Hg10 mi
3:30 PM70 °FSunny.21 mph50%29.86 "Hg10 mi
3:00 PM70 °FSunny.21 mph50%29.86 "Hg10 mi
2:30 PM72 °FSunny.22 mph47%29.86 "Hg10 mi
2:00 PM72 °FSunny.23 mph47%29.89 "Hg10 mi
1:30 PM72 °FSunny.24 mph44%29.89 "Hg10 mi
1:00 PM72 °FSunny.25 mph44%29.89 "Hg10 mi
12:30 PM72 °FSunny.23 mph47%29.89 "Hg10 mi
12:00 PM73 °FSunny.24 mph38%29.92 "Hg10 mi
11:30 AM73 °FSunny.29 mph38%29.92 "Hg10 mi
11:00 AM73 °FSunny.28 mph33%29.92 "Hg10 mi
10:30 AM72 °FSunny.23 mph36%29.92 "Hg10 mi
10:00 AM72 °FSunny.22 mph38%29.92 "Hg10 mi
9:30 AM72 °FSunny.22 mph36%29.92 "Hg10 mi
9:00 AM70 °FSunny.21 mph38%29.92 "Hg10 mi
Weather by CustomWeather, © 2015

See weather overviewHow to use our weather pages